Starlink 33664

operational
NORAD ID: 63415 Int'l Des: 2025-065 Owner: SPXS Country: US Constellation: starlink
LEOCIRCULAR

About Starlink 33664

Description loading...

Live Position

Loading 3D Globe...

Upcoming Passes

Altitude History

Altitude vs Time

uPlot chart will show altitude changes over time

Two-Line Element Set

1 63415U 25065S 25301.23996214 .00026105 00000-0 95364-3 0 9998
2 63415 43.0051 135.0237 0000645 273.7252 86.3526 15.27620769 32581
Epoch: Oct 28, 2025 • Age: 27 hours

Current Status

Altitude 482.1 km
Velocity 7.63 km/s
Sub-Earth Point 15.00°N, 117.18°E
Launch Date Mar 31, 2025
Age 0.5 years
Type internet

Technical Details

Classification Payload
Mass 575.00 kg
Dry Mass 530.00 kg
Total Mass 575.00 kg
Length 0.30 m
Diameter 4.10 m
Span 29.00 m
Shape Box + pan
Manufacturer SPXS
Bus Type Starlink V2MO
Phase Status In Orbit
Owner/State SPXS/US

Large Constellations

Loading constellations...